• In Hungary
  • List of Countries
  • For 7 days
  • Water Temperature
  • Satellite Maps
  • Weather Map
  • News
  • Weather Widgets
  • user-avatar
    Login

    Hourly Weather Kendari

    Today, 21 August, Monday

    Time Temperature Precipitation Wind Pressure Humidity
    00:00 +25°C° 0 mm 2 mps 746 mmHg 85%
    01:00 +25°C° 0 mm 2 mps 746 mmHg 86%
    02:00 +25°C° 0 mm 2 mps 746 mmHg 86%
    03:00 +25°C° 0 mm 2 mps 746 mmHg 87%
    04:00 +25°C° 0 mm 2 mps 746 mmHg 88%
    05:00 +24°C° 0 mm 2 mps 746 mmHg 89%
    06:00 +25°C° 0.1 mm 2 mps 746 mmHg 85%
    07:00 +27°C° 0.1 mm 2 mps 746 mmHg 81%
    08:00 +28°C° 0.1 mm 2 mps 746 mmHg 78%
    09:00 +29°C° 0.1 mm 3 mps 746 mmHg 73%
    10:00 +30°C° 0.1 mm 3 mps 746 mmHg 68%
    11:00 +31°C° 0.1 mm 3 mps 746 mmHg 63%
    12:00 +31°C° 0.1 mm 3 mps 746 mmHg 64%
    13:00 +31°C° 0.1 mm 3 mps 745 mmHg 64%
    14:00 +31°C° 0.1 mm 3 mps 745 mmHg 64%
    15:00 +30°C° 0 mm 3 mps 745 mmHg 67%
    16:00 +29°C° 0 mm 3 mps 745 mmHg 71%
    17:00 +29°C° 0 mm 3 mps 744 mmHg 75%
    18:00 +28°C° 0 mm 3 mps 745 mmHg 79%
    19:00 +27°C° 0 mm 3 mps 745 mmHg 84%
    20:00 +26°C° 0 mm 3 mps 745 mmHg 88%
    21:00 +26°C° 0.1 mm 3 mps 745 mmHg 89%
    22:00 +26°C° 0.1 mm 3 mps 746 mmHg 90%
    23:00 +25°C° 0.1 mm 3 mps 746 mmHg 91%

    Tomorrow, 22 August, Tuesday

    Time Temperature Precipitation Wind Pressure Humidity
    00:00 +25°C° 0.2 mm 3 mps 746 mmHg 91%
    01:00 +25°C° 0.2 mm 3 mps 745 mmHg 90%
    02:00 +25°C° 0.2 mm 3 mps 745 mmHg 90%
    03:00 +25°C° 0.1 mm 3 mps 745 mmHg 90%
    04:00 +25°C° 0.1 mm 3 mps 745 mmHg 90%
    05:00 +25°C° 0.1 mm 3 mps 745 mmHg 90%
    06:00 +26°C° 0.1 mm 3 mps 746 mmHg 86%
    07:00 +27°C° 0.1 mm 3 mps 746 mmHg 83%
    08:00 +28°C° 0.1 mm 3 mps 746 mmHg 80%
    09:00 +28°C° 0.2 mm 3 mps 746 mmHg 77%
    10:00 +29°C° 0.2 mm 3 mps 746 mmHg 73%
    11:00 +30°C° 0.2 mm 3 mps 746 mmHg 69%
    12:00 +30°C° 0.5 mm 4 mps 746 mmHg 72%
    13:00 +30°C° 0.5 mm 4 mps 745 mmHg 74%
    14:00 +30°C° 0.5 mm 4 mps 745 mmHg 77%
    15:00 +29°C° 0.4 mm 4 mps 745 mmHg 79%
    16:00 +29°C° 0.4 mm 3 mps 745 mmHg 82%
    17:00 +28°C° 0.4 mm 3 mps 745 mmHg 85%
    18:00 +28°C° 0.2 mm 3 mps 745 mmHg 87%
    19:00 +27°C° 0.2 mm 4 mps 746 mmHg 88%
    20:00 +26°C° 0.2 mm 4 mps 746 mmHg 90%
    21:00 +26°C° 0.5 mm 3 mps 747 mmHg 90%
    22:00 +26°C° 0.5 mm 3 mps 747 mmHg 90%
    23:00 +26°C° 0.5 mm 3 mps 747 mmHg 90%

    Day after tomorrow, 23 August, Wednesday

    Time Temperature Precipitation Wind Pressure Humidity
    00:00 +26°C° 0.2 mm 3 mps 747 mmHg 90%
    01:00 +25°C° 0.2 mm 3 mps 746 mmHg 90%
    02:00 +25°C° 0.2 mm 3 mps 746 mmHg 91%
    03:00 +25°C° 0 mm 3 mps 746 mmHg 91%
    04:00 +25°C° 0 mm 3 mps 746 mmHg 91%
    05:00 +25°C° 0 mm 3 mps 746 mmHg 90%
    06:00 +26°C° 0.1 mm 3 mps 746 mmHg 88%
    07:00 +27°C° 0.1 mm 3 mps 747 mmHg 86%
    08:00 +27°C° 0.1 mm 3 mps 747 mmHg 83%
    09:00 +28°C° 0.3 mm 3 mps 747 mmHg 80%
    10:00 +29°C° 0.3 mm 4 mps 747 mmHg 77%
    11:00 +30°C° 0.3 mm 4 mps 747 mmHg 74%
    12:00 +30°C° 0.9 mm 4 mps 746 mmHg 76%
    13:00 +29°C° 0.9 mm 4 mps 746 mmHg 78%
    14:00 +29°C° 0.9 mm 4 mps 745 mmHg 79%
    15:00 +29°C° 0.7 mm 4 mps 745 mmHg 81%
    16:00 +28°C° 0.7 mm 4 mps 745 mmHg 83%
    17:00 +28°C° 0.7 mm 3 mps 745 mmHg 85%
    18:00 +27°C° 0.1 mm 3 mps 745 mmHg 87%
    19:00 +26°C° 0.1 mm 3 mps 746 mmHg 88%
    20:00 +26°C° 0.1 mm 3 mps 747 mmHg 90%
    21:00 +26°C° 0 mm 3 mps 747 mmHg 90%
    22:00 +25°C° 0 mm 3 mps 747 mmHg 91%
    23:00 +25°C° 0 mm 3 mps 747 mmHg 91%

    24 August, Thursday

    Time Temperature Precipitation Wind Pressure Humidity
    00:00 +25°C° 0.1 mm 3 mps 747 mmHg 91%
    01:00 +25°C° 0.1 mm 3 mps 746 mmHg 91%
    02:00 +25°C° 0.1 mm 3 mps 746 mmHg 91%
    03:00 +25°C° 0.1 mm 3 mps 746 mmHg 92%
    04:00 +25°C° 0.1 mm 3 mps 746 mmHg 92%
    05:00 +25°C° 0.1 mm 3 mps 746 mmHg 92%
    06:00 +25°C° 0.1 mm 3 mps 747 mmHg 89%
    07:00 +26°C° 0.1 mm 3 mps 747 mmHg 86%
    08:00 +27°C° 0.1 mm 3 mps 748 mmHg 84%
    09:00 +28°C° 0.1 mm 3 mps 747 mmHg 77%
    10:00 +30°C° 0.1 mm 3 mps 747 mmHg 71%
    11:00 +31°C° 0.1 mm 3 mps 747 mmHg 65%
    12:00 +31°C° 0.3 mm 3 mps 746 mmHg 66%
    13:00 +31°C° 0.3 mm 3 mps 746 mmHg 67%
    14:00 +31°C° 0.3 mm 3 mps 745 mmHg 69%
    15:00 +30°C° 0.7 mm 3 mps 745 mmHg 75%
    16:00 +29°C° 0.7 mm 3 mps 745 mmHg 81%
    17:00 +28°C° 0.7 mm 4 mps 745 mmHg 87%
    18:00 +27°C° 0.6 mm 3 mps 745 mmHg 88%
    19:00 +26°C° 0.6 mm 3 mps 746 mmHg 90%
    20:00 +25°C° 0.6 mm 3 mps 746 mmHg 91%
    21:00 +25°C° 0.2 mm 3 mps 746 mmHg 91%
    22:00 +25°C° 0.2 mm 3 mps 747 mmHg 91%
    23:00 +25°C° 0.2 mm 2 mps 747 mmHg 90%

    25 August, Friday

    Time Temperature Precipitation Wind Pressure Humidity
    00:00 +25°C° 0.1 mm 2 mps 746 mmHg 90%
    01:00 +25°C° 0.1 mm 2 mps 746 mmHg 90%
    02:00 +25°C° 0.1 mm 2 mps 745 mmHg 90%
    03:00 +25°C° 0 mm 2 mps 745 mmHg 90%
    04:00 +25°C° 0 mm 2 mps 745 mmHg 90%
    05:00 +25°C° 0 mm 3 mps 745 mmHg 90%
    06:00 +26°C° 0.1 mm 3 mps 746 mmHg 89%
    07:00 +26°C° 0.1 mm 3 mps 746 mmHg 88%
    08:00 +27°C° 0.1 mm 3 mps 747 mmHg 87%
    09:00 +28°C° 0.2 mm 3 mps 746 mmHg 81%
    10:00 +29°C° 0.2 mm 3 mps 746 mmHg 76%
    11:00 +30°C° 0.2 mm 3 mps 746 mmHg 71%
    12:00 +30°C° 0.6 mm 3 mps 745 mmHg 72%
    13:00 +30°C° 0.6 mm 3 mps 745 mmHg 74%
    14:00 +30°C° 0.6 mm 3 mps 744 mmHg 76%
    15:00 +29°C° 0.5 mm 3 mps 744 mmHg 79%
    16:00 +28°C° 0.5 mm 3 mps 744 mmHg 83%
    17:00 +28°C° 0.5 mm 3 mps 744 mmHg 86%
    18:00 +27°C° 0.4 mm 3 mps 745 mmHg 87%
    19:00 +26°C° 0.4 mm 3 mps 745 mmHg 89%
    20:00 +26°C° 0.4 mm 3 mps 746 mmHg 90%
    21:00 +25°C° 0.3 mm 3 mps 746 mmHg 90%
    22:00 +25°C° 0.3 mm 3 mps 746 mmHg 90%
    23:00 +25°C° 0.3 mm 3 mps 746 mmHg 90%

    26 August, Saturday

    Time Temperature Precipitation Wind Pressure Humidity
    00:00 +25°C° 0.1 mm 3 mps 745 mmHg 90%
    01:00 +25°C° 0.1 mm 3 mps 745 mmHg 90%
    02:00 +25°C° 0.1 mm 3 mps 744 mmHg 90%
    03:00 +25°C° 0.1 mm 3 mps 745 mmHg 90%
    04:00 +25°C° 0.1 mm 3 mps 745 mmHg 90%
    05:00 +25°C° 0.1 mm 3 mps 745 mmHg 90%
    06:00 +26°C° 0.1 mm 3 mps 745 mmHg 88%
    07:00 +26°C° 0.1 mm 3 mps 746 mmHg 86%
    08:00 +27°C° 0.1 mm 3 mps 746 mmHg 83%
    09:00 +28°C° 0.2 mm 3 mps 746 mmHg 78%
    10:00 +29°C° 0.2 mm 3 mps 746 mmHg 73%
    11:00 +30°C° 0.2 mm 3 mps 745 mmHg 68%
    12:00 +30°C° 0.6 mm 3 mps 745 mmHg 70%
    13:00 +30°C° 0.6 mm 4 mps 744 mmHg 72%
    14:00 +30°C° 0.6 mm 4 mps 744 mmHg 74%
    15:00 +29°C° 0.3 mm 4 mps 744 mmHg 77%
    16:00 +29°C° 0.3 mm 4 mps 744 mmHg 79%
    17:00 +28°C° 0.3 mm 3 mps 744 mmHg 82%
    18:00 +27°C° 0.1 mm 3 mps 744 mmHg 84%
    19:00 +27°C° 0.1 mm 3 mps 745 mmHg 86%
    20:00 +26°C° 0.1 mm 3 mps 745 mmHg 88%
    21:00 +26°C° 0 mm 3 mps 745 mmHg 89%
    22:00 +25°C° 0 mm 3 mps 745 mmHg 89%
    23:00 +25°C° 0 mm 3 mps 746 mmHg 90%
    Show more